Stations météo

réclame
Mon MeteoGroup
Novara/Cameri, Italie (16064): Température de l'air & dewpoint: 16.06.2018 19:00:00 - 22.06.2018 19:00:00 (CEST)Novara/Cameri, Italie (16064): Vitesse du vent: 16.06.2018 19:00:00 - 22.06.2018 19:00:00 (CEST)Novara/Cameri, Italie (16064): Direction du vent: 16.06.2018 19:00:00 - 22.06.2018 19:00:00 (CEST)Novara/Cameri, Italie (16064): reduced air pressure: 16.06.2018 19:00:00 - 22.06.2018 19:00:00 (CEST)Novara/Cameri, Italie (16064): visibility: 16.06.2018 19:00:00 - 22.06.2018 19:00:00 (CEST)Novara/Cameri, Italie (16064): Ensoleillement: 16.06.2018 19:00:00 - 22.06.2018 19:00:00 (CEST)
Date & Time tt [°C] td [°C] ff [km/h] ff [knt] dd ppp [hPa] vv [km] sd [min]
22.06.2018 19:00:00 - - - - - - - -
22.06.2018 18:00:00 30,0 17,0 16 9 ESE - 10 -
22.06.2018 17:00:00 32,0 0,2 24 13 NNE 1010,7 20 60
22.06.2018 16:00:00 32,0 1,0 22 12 NE - 10 -
22.06.2018 15:00:00 32,0 3,0 21 11 NNE - 10 -
22.06.2018 14:00:00 31,6 2,8 18 10 NNE 1011,0 20 60
22.06.2018 13:00:00 31,0 4,0 24 13 NE - 10 -
22.06.2018 12:00:00 31,0 7,0 18 10 N - 10 -
22.06.2018 11:00:00 28,0 17,5 5 3 - 1011,0 10 60
22.06.2018 10:00:00 26,0 19,0 9 5 WSW - 10 -
22.06.2018 09:00:00 24,0 19,0 5 3 SW - 10 -
22.06.2018 08:00:00 21,4 19,3 0 0 N 1010,9 10 -
22.06.2018 07:00:00 20,0 18,0 0 0 N - 10 -
22.06.2018 06:00:00 - - - - - - - -
22.06.2018 05:00:00 - - - - - - - -
22.06.2018 04:00:00 - - - - - - - -
22.06.2018 03:00:00 - - - - - - - -
22.06.2018 02:00:00 - - - - - - - -
22.06.2018 01:00:00 - - - - - - - -
22.06.2018 00:00:00 - - - - - - - -
21.06.2018 23:00:00 - - - - - - - -
21.06.2018 22:00:00 - - - - - - - -
21.06.2018 21:00:00 - - - - - - - -
21.06.2018 20:00:00 29,8 19,2 5 3 W 1011,2 10 -
21.06.2018 19:00:00 30,0 19,0 8 4 W - 10 -
21.06.2018 18:00:00 31,0 18,0 11 6 WSW - 10 -
21.06.2018 17:00:00 30,8 17,1 13 7 SW 1012,5 10 60
21.06.2018 16:00:00 30,0 16,0 13 7 WSW - 10 -
21.06.2018 15:00:00 30,0 18,0 13 7 WSW - 10 -
21.06.2018 14:00:00 29,6 18,4 11 6 WSW 1014,8 10 60
21.06.2018 13:00:00 29,0 18,0 9 5 SW - 10 -
21.06.2018 12:00:00 29,0 17,0 9 5 WSW - 10 -
21.06.2018 11:00:00 27,4 17,3 5 3 - 1016,3 10 60
21.06.2018 10:00:00 26,0 18,0 5 3 - - 10 -
21.06.2018 09:00:00 23,0 19,0 9 5 NNW - 10 -
21.06.2018 08:00:00 21,8 18,6 11 6 N 1017,4 10 -
21.06.2018 07:00:00 20,0 18,0 4 2 NNW - 10 -
21.06.2018 06:00:00 - - - - - - - -
21.06.2018 05:00:00 - - - - - - - -
21.06.2018 04:00:00 - - - - - - - -
21.06.2018 03:00:00 - - - - - - - -
21.06.2018 02:00:00 - - - - - - - -
21.06.2018 01:00:00 - - - - - - - -
21.06.2018 00:00:00 - - - - - - - -
20.06.2018 23:00:00 - - - - - - - -
20.06.2018 22:00:00 - - - - - - - -
20.06.2018 21:00:00 - - - - - - - -
20.06.2018 20:00:00 29,2 15,7 8 4 WSW 1017,4 10 60
20.06.2018 19:00:00 30,0 16,0 9 5 WSW - 10 -
20.06.2018 18:00:00 30,0 16,0 5 3 - - 10 -
20.06.2018 17:00:00 30,6 15,1 9 5 SSW 1018,2 10 60
20.06.2018 16:00:00 31,0 15,0 11 6 S - 10 -
20.06.2018 15:00:00 30,0 15,0 11 6 S - 10 -
20.06.2018 14:00:00 29,8 14,8 11 6 SE 1019,5 10 60
20.06.2018 13:00:00 30,0 15,0 13 7 SE - 10 -
20.06.2018 12:00:00 29,0 17,0 9 5 ESE - 10 -
20.06.2018 11:00:00 28,2 18,9 4 2 N 1020,2 10 0
20.06.2018 10:00:00 26,0 19,0 5 3 N - 10 -
20.06.2018 09:00:00 25,0 20,0 11 6 N - 10 -
20.06.2018 08:00:00 23,2 20,0 11 6 N 1020,5 10 -
20.06.2018 07:00:00 22,0 20,0 9 5 NNW - 10 -
20.06.2018 06:00:00 - - - - - - - -
20.06.2018 05:00:00 - - - - - - - -
20.06.2018 04:00:00 - - - - - - - -
20.06.2018 03:00:00 - - - - - - - -
20.06.2018 02:00:00 - - - - - - - -
20.06.2018 01:00:00 - - - - - - - -
20.06.2018 00:00:00 - - - - - - - -
19.06.2018 23:00:00 - - - - - - - -
19.06.2018 22:00:00 - - - - - - - -
19.06.2018 21:00:00 - - - - - - - -
19.06.2018 20:00:00 28,8 18,0 8 4 S 1017,6 10 60
19.06.2018 19:00:00 30,0 17,0 9 5 WSW - 10 -
19.06.2018 18:00:00 30,0 17,0 13 7 WSW - 10 -
19.06.2018 17:00:00 30,2 17,7 9 5 W 1017,9 10 60
19.06.2018 16:00:00 30,0 18,0 11 6 SW - 10 -
19.06.2018 15:00:00 30,0 18,0 9 5 SW - 10 -
19.06.2018 14:00:00 29,2 17,4 9 5 SSE 1019,0 10 54
19.06.2018 13:00:00 29,0 17,0 4 2 - - 10 -
19.06.2018 12:00:00 28,0 17,0 8 4 ESE - 10 -
19.06.2018 11:00:00 27,2 16,5 4 2 N 1019,7 20 60
19.06.2018 10:00:00 25,0 15,0 5 3 NNE - 10 -
19.06.2018 09:00:00 23,0 14,0 11 6 N - 10 -
19.06.2018 08:00:00 21,4 15,0 9 5 N 1019,7 20 -
19.06.2018 07:00:00 19,0 14,0 11 6 N - 10 -
19.06.2018 06:00:00 - - - - - - - -
19.06.2018 05:00:00 - - - - - - - -
19.06.2018 04:00:00 - - - - - - - -
19.06.2018 03:00:00 - - - - - - - -
19.06.2018 02:00:00 - - - - - - - -
19.06.2018 01:00:00 - - - - - - - -
19.06.2018 00:00:00 - - - - - - - -
18.06.2018 23:00:00 - - - - - - - -
18.06.2018 22:00:00 - - - - - - - -
18.06.2018 21:00:00 - - - - - - - -
18.06.2018 20:00:00 29,0 16,2 4 2 N 1015,1 20 60
18.06.2018 19:00:00 29,0 17,0 8 4 W - 10 -
18.06.2018 18:00:00 29,0 17,0 5 3 - - 10 -
18.06.2018 17:00:00 29,4 17,6 11 6 W 1015,4 20 60
18.06.2018 16:00:00 29,0 18,0 11 6 WSW - 10 -
18.06.2018 15:00:00 29,0 18,0 8 4 SSW - 10 -
18.06.2018 14:00:00 28,4 17,0 11 6 SSE 1016,2 20 60
18.06.2018 13:00:00 27,0 17,0 5 3 - - 10 -
18.06.2018 12:00:00 - - - - - - - -
18.06.2018 11:00:00 25,8 16,9 9 5 SE 1016,7 20 60
18.06.2018 10:00:00 25,0 16,0 11 6 E - 10 -
18.06.2018 09:00:00 23,0 17,0 9 5 N - 10 -
18.06.2018 08:00:00 21,6 17,4 8 4 N 1016,1 20 -
18.06.2018 07:00:00 21,0 17,0 9 5 NNE - 10 -
18.06.2018 06:00:00 - - - - - - - -
18.06.2018 05:00:00 - - - - - - - -
18.06.2018 04:00:00 - - - - - - - -
18.06.2018 03:00:00 - - - - - - - -
18.06.2018 02:00:00 - - - - - - - -
18.06.2018 01:00:00 - - - - - - - -
18.06.2018 00:00:00 - - - - - - - -
17.06.2018 23:00:00 - - - - - - - -
17.06.2018 22:00:00 - - - - - - - -
17.06.2018 21:00:00 - - - - - - - -
17.06.2018 20:00:00 - - - - - - - -
17.06.2018 19:00:00 - - - - - - - -
17.06.2018 18:00:00 - - - - - - - -
17.06.2018 17:00:00 - - - - - - - -
17.06.2018 16:00:00 - - - - - - - -
17.06.2018 15:00:00 - - - - - - - -
17.06.2018 14:00:00 - - - - - - - -
17.06.2018 13:00:00 - - - - - - - -
17.06.2018 12:00:00 - - - - - - - -
17.06.2018 11:00:00 - - - - - - - -
17.06.2018 10:00:00 - - - - - - - -
17.06.2018 09:00:00 - - - - - - - -
17.06.2018 08:00:00 - - - - - - - -
17.06.2018 07:00:00 - - - - - - - -
17.06.2018 06:00:00 - - - - - - - -
17.06.2018 05:00:00 - - - - - - - -
17.06.2018 04:00:00 - - - - - - - -
17.06.2018 03:00:00 - - - - - - - -
17.06.2018 02:00:00 - - - - - - - -
17.06.2018 01:00:00 - - - - - - - -
17.06.2018 00:00:00 - - - - - - - -
16.06.2018 23:00:00 - - - - - - - -
16.06.2018 22:00:00 - - - - - - - -
16.06.2018 21:00:00 - - - - - - - -
16.06.2018 20:00:00 - - - - - - - -
16.06.2018 19:00:00 - - - - - - - -

tt = Température de l'air
td = dewpoint
ff = Vitesse du vent
dd = Direction du vent
ppp = reduced air pressure
vv = visibility
sd = Ensoleillement

stations d'obs. à proximité